User: anonymous   Login
Location: Unspecified
(0.0000°N, 0.0000°E)
Time: 00:10:53
(UTC+00:00)
Language:

Navstar 6 - Orbit

View from above orbital plane
View from above orbital plane
View from above satellite
View from above satellite

Ground track
Ground track

The orbit data is extracted from the following two-line orbital elements,

1 11783U 80032A   18112.36594383 -.00000055 +00000-0 +00000-0 0  9998
2 11783 063.5432 348.5500 0513064 060.0415 244.0932 02.03455925281162
Epoch (UTC): 22 April 2018 08:46:57
Eccentricity: 0.0513064
inclination: 63.5432°
perigee height: 18580 km
apogee height: 21279 km
right ascension of ascending node: 348.5500°
argument of perigee: 60.0415°
revolutions per day: 2.03455925
mean anomaly at epoch: 244.0932°
orbit number at epoch: 28116

The dashed part of the orbit path shows where the satellite is in the earth's shadow,  

DLR